Weather History for KHST - May, 2014

Change the Weather History Date:

Sunday, May 18, 2014

  Actual Average Record
Temperature  
Mean Temperature 77 °F -  
Max Temperature 82 °F 85 °F 95 °F (1945)
Min Temperature 72 °F 67 °F 56 °F (1939)
Cooling Degree Days 12    
Growing Degree Days 27 (Base 50)    
Moisture  
Dew Point 64 °F    
Average Humidity 64    
Maximum Humidity 72    
Minimum Humidity 56    
Precipitation  
Precipitation 0.00 in - - ()
Sea Level Pressure  
Sea Level Pressure 30.08 in    
Wind  
Wind Speed 14 mph (NE)    
Max Wind Speed 21 mph    
Max Gust Speed 29 mph    
Visibility 10 miles    
Events      
Averages and records for this station are not official NWS values.
T = Trace of Precipitation, MM = Missing Value Source: NWS Daily Summary

Daily Weather History Graph

Daily Weather History Graph

Search for Another Location

Airport or City:

Trip Planner

Search our weather history database for the weather conditions in past years. The results will help you decide how hot, cold, wet, or windy it might be!

Date:

Astronomy

May. 18, 2014 Rise Set
Actual Time 6:34 AM EDT 8:01 PM EDT
Civil Twilight 6:09 AM EDT 8:26 PM EDT
Nautical Twilight 5:40 AM EDT 8:56 PM EDT
Astronomical Twilight 5:09 AM EDT 9:27 PM EDT
Moon 11:55 PM EDT (5/18) 10:18 AM EDT (5/18)
Length of Visible Light 14h 16m
Length of Day
13h 26m
Waning Gibbous, 81% of the Moon is Illuminated
May 18
Waning Gibbous
May 21
Last Quarter
May 28
New
Jun 5
First Quarter
Jun 13
Full

Hourly Weather History & Observations

Time (EDT) Temp. Heat Index Dew Point Humidity Pressure Visibility Wind Dir Wind Speed Gust Speed Precip Events Conditions
12:58 AM 75.0 °F - 64.4 °F 69% 30.09 in 10.0 mi NE 15.0 mph - N/A   Partly Cloudy
1:58 AM 75.0 °F - 62.6 °F 65% 30.07 in 10.0 mi NE 11.5 mph - N/A   Clear
2:58 AM 74.1 °F - 61.5 °F 65% 30.06 in 10.0 mi NE 10.4 mph - N/A   Clear
3:58 AM 73.6 °F - 61.9 °F 67% 30.05 in 10.0 mi NE 13.8 mph - N/A   Clear
4:58 AM 72.7 °F - 62.4 °F 70% 30.06 in 10.0 mi NE 10.4 mph - N/A   Clear
5:58 AM 72.0 °F - 61.9 °F 70% 30.07 in 10.0 mi NE 11.5 mph - N/A   Clear
6:58 AM 72.0 °F - 61.2 °F 69% 30.08 in 10.0 mi NNE 10.4 mph - N/A   Clear
7:58 AM 74.8 °F - 62.1 °F 64% 30.10 in 10.0 mi NE 10.4 mph - N/A   Scattered Clouds
8:58 AM 77.7 °F - 62.8 °F 60% 30.10 in 10.0 mi NE 16.1 mph 21.9 mph N/A   Partly Cloudy
9:58 AM 79.0 °F - 63.0 °F 58% 30.11 in 10.0 mi ENE 16.1 mph 23.0 mph N/A   Clear
10:58 AM 79.7 °F - 64.4 °F 59% 30.11 in 10.0 mi NE 17.3 mph 23.0 mph N/A   Clear
11:58 AM 80.2 °F 81.9 °F 64.0 °F 58% 30.11 in 10.0 mi ENE 15.0 mph 25.3 mph N/A   Clear
12:58 PM 81.1 °F 82.7 °F 63.9 °F 56% 30.10 in 10.0 mi ENE 18.4 mph 23.0 mph N/A   Clear
1:58 PM 81.7 °F 84.0 °F 66.4 °F 60% 30.08 in 10.0 mi NE 20.7 mph 28.8 mph N/A   Partly Cloudy
2:58 PM 82.4 °F 84.2 °F 65.3 °F 56% 30.07 in 10.0 mi ENE 19.6 mph 27.6 mph N/A   Clear
3:58 PM 82.4 °F 84.4 °F 66.0 °F 57% 30.06 in 10.0 mi NE 18.4 mph 25.3 mph N/A   Clear
4:58 PM 81.1 °F 83.4 °F 66.4 °F 61% 30.06 in 10.0 mi ENE 13.8 mph 21.9 mph N/A   Partly Cloudy
5:58 PM 80.4 °F 83.0 °F 67.5 °F 65% 30.06 in 10.0 mi NE 16.1 mph 25.3 mph N/A   Scattered Clouds
6:58 PM 79.0 °F - 66.9 °F 66% 30.07 in 10.0 mi NE 16.1 mph 21.9 mph N/A   Partly Cloudy
7:58 PM 77.0 °F - 66.4 °F 70% 30.07 in 10.0 mi NE 13.8 mph - N/A   Scattered Clouds
8:58 PM 75.9 °F - 66.2 °F 72% 30.08 in 10.0 mi NE 17.3 mph - N/A   Partly Cloudy
9:58 PM 76.3 °F - 64.8 °F 67% 30.10 in 10.0 mi ENE 11.5 mph - N/A   Partly Cloudy
10:58 PM 75.9 °F - 63.5 °F 65% 30.10 in 10.0 mi NE 11.5 mph - N/A   Clear
11:58 PM 75.6 °F - 62.6 °F 64% 30.10 in 10.0 mi ENE 11.5 mph - N/A   Clear